Home   Weather   44°54'N, 91°52'W   Past weeks
Flag for USA

Past Weather in 44°54'N, 91°52'W, USA — Yesterday and Last 2 Weeks

Now
37 °F

Overcast.


Feels Like: 31 °F
Forecast: 40 / 31 °F
Wind: 8 mph from Northwest

Location: Eau Claire County Airport

Current Time: Mar 20, 2019 at 5:16:11 pm

Latest Report: Mar 20, 2019 at 3:56 pm


Visibility: 10 mi

Pressure: 29.93 "Hg

Humidity: 73%

Dew Point: 29 °F

Location of 44°54'N, 91°52'WLocation

Past Weather in 44°54'N, 91°52'W — Graph

°F

44°54'N, 91°52'W Temperature Yesterday

Maximum temperature yesterday: 44 °F (at 1:56 pm)
Minimum temperature yesterday: 20 °F (at 7:56 am)
Average temperature yesterday: 34 °F

High & Low Weather Summary for the Past Weeks

 TemperatureHumidityPressure
High50 °F (Mar 14, 1:56 pm)100% (Mar 7, 7:56 am)30.45 "Hg (Mar 7, 7:56 am)
Low-12 °F (Mar 7, 6:56 am)43% (Mar 7, 3:56 pm)29.19 "Hg (Mar 14, 2:33 pm)
Average26 °F79%30.02 "Hg
* Reported Mar 5 2:56 pm — Mar 20 3:56 pm, 44°54'N, 91°52'W. Weather by CustomWeather, © 2019

Note: Actual official high and low records may vary slightly from our data, if they occured in-between our weather recording intervals... More about our weather records

Advertising

44°54'N, 91°52'W Weather History for the Previous 24 Hours

Scroll right to see more
 ConditionsComfort  
Time TempWeatherWind HumidityBarometerVisibility
3:56 pm
Wed, Mar 20
37 °FOvercast.8 mph73%29.93 "Hg10 mi
2:56 pm36 °FOvercast.8 mph79%29.91 "Hg8 mi
1:56 pm35 °FOvercast.10 mph82%29.91 "Hg7 mi
12:56 pm35 °FOvercast.9 mph82%29.91 "Hg7 mi
11:56 am35 °FOvercast.7 mph78%29.91 "Hg8 mi
10:56 am35 °FOvercast.10 mph78%29.91 "Hg8 mi
9:56 am35 °FMostly cloudy.12 mph78%29.90 "Hg10 mi
8:56 am35 °FOvercast.12 mph78%29.93 "Hg10 mi
7:56 am35 °FOvercast.10 mph82%29.93 "Hg10 mi
6:56 am35 °FOvercast.12 mph82%29.94 "Hg10 mi
5:56 am36 °FPassing clouds.10 mph79%29.95 "Hg10 mi
4:56 am36 °FPassing clouds.9 mph79%29.97 "Hg10 mi
3:56 am35 °FClear.9 mph82%30.01 "Hg10 mi
2:56 am36 °FClear.8 mph82%30.04 "Hg10 mi
1:56 am37 °FClear.10 mph79%30.05 "Hg10 mi
12:56 am37 °FClear.8 mph79%30.07 "Hg10 mi
11:56 pm
Tue, Mar 19
37 °FClear.7 mph79%30.09 "Hg10 mi
10:56 pm37 °FClear.7 mph73%30.11 "Hg10 mi
9:56 pm36 °FClear.7 mph73%30.14 "Hg10 mi
8:56 pm38 °FClear.6 mph65%30.16 "Hg10 mi
7:56 pm40 °FClear.8 mph60%30.17 "Hg10 mi
6:56 pm42 °FSunny.10 mph53%30.17 "Hg10 mi
5:56 pm44 °FSunny.13 mph47%30.17 "Hg10 mi
Weather by CustomWeather, © 2019

See weather overview